Location: Madrid
(40.4000°N, 3.6830°W)
Time: 22:49:56
(UTC+01:00)

ISS - Pass Details

Date: 13 January 2018
Orbit: 402 x 407 km, 51.6° (Epoch: 23 January)

Event Time Altitude Azimuth Distance (km) Brightness Sun altitude
Exits shadow 07:06:24 31° 340° (NNW) 745 -2.8 -16.8°
Maximum altitude 07:07:32 45° 32° (NNE) 566 -3.0 -16.6°
Drops below altitude 10° 07:10:42 10° 106° (ESE) 1,462 0.4 -16.0°
Sets 07:12:50 0° 113° (ESE) 2,320 1.8 -15.7°
